Location: Unspecified
(0.0000°N, 0.0000°E)
Time: 19:01:24
(UTC+00:00)

Vanguard 2 Rocket - Pass Details

Date: 28 November 2019
Orbit: 554 x 3326 km, 32.9° (Epoch: 09 December)

Event Time Altitude Azimuth Distance (km) Brightness Sun altitude
Rises 07:03:48 0° 290° (WNW) 4,121 9.6 17.7°
Reaches altitude 10° 07:06:11 10° 285° (WNW) 3,432 9.3 18.2°
Maximum altitude 07:15:08 54° 209° (SSW) 2,330 9.2 20.3°
Drops below altitude 10° 07:30:45 10° 136° (SE) 5,732 12.3 23.9°
Sets 07:36:09 0° 132° (SE) 7,036 12.6 25.1°
